Meteo pe oră la Bolshie Malosheviny

Astăzi, 10 Mai, Luni

Timp Temperatura Precipitaţii Vânt Presiune Umiditate
00:00 +3°C° 0 mm 1 m/s 753 mmHg 72%
01:00 +3°C° 0 mm 1 m/s 753 mmHg 72%
02:00 +3°C° 0 mm 1 m/s 754 mmHg 72%
03:00 +3°C° 0 mm 1 m/s 754 mmHg 71%
04:00 +4°C° 0 mm 1 m/s 754 mmHg 69%
05:00 +4°C° 0 mm 1 m/s 755 mmHg 67%
06:00 +6°C° 0 mm 1 m/s 755 mmHg 60%
07:00 +8°C° 0 mm 2 m/s 755 mmHg 53%
08:00 +10°C° 0 mm 2 m/s 755 mmHg 46%
09:00 +12°C° 0 mm 2 m/s 755 mmHg 42%
10:00 +13°C° 0 mm 3 m/s 755 mmHg 38%
11:00 +14°C° 0 mm 3 m/s 755 mmHg 34%
12:00 +16°C° 0 mm 3 m/s 755 mmHg 35%
13:00 +16°C° 0 mm 3 m/s 755 mmHg 36%
14:00 +17°C° 0 mm 2 m/s 755 mmHg 36%
15:00 +17°C° 0 mm 2 m/s 755 mmHg 40%
16:00 +17°C° 0 mm 2 m/s 755 mmHg 43%
17:00 +16°C° 0 mm 2 m/s 755 mmHg 47%
18:00 +14°C° 0 mm 2 m/s 755 mmHg 55%
19:00 +12°C° 0 mm 2 m/s 755 mmHg 62%
20:00 +9°C° 0 mm 2 m/s 756 mmHg 70%
21:00 +9°C° 0 mm 2 m/s 756 mmHg 71%
22:00 +8°C° 0 mm 2 m/s 756 mmHg 73%
23:00 +7°C° 0 mm 2 m/s 756 mmHg 74%

Mâine, 11 Mai, Marţi

Timp Temperatura Precipitaţii Vânt Presiune Umiditate
00:00 +7°C° 0 mm 2 m/s 756 mmHg 75%
01:00 +7°C° 0 mm 2 m/s 757 mmHg 76%
02:00 +6°C° 0 mm 2 m/s 757 mmHg 77%
03:00 +7°C° 0 mm 1 m/s 757 mmHg 76%
04:00 +8°C° 0 mm 1 m/s 757 mmHg 75%
05:00 +8°C° 0 mm 1 m/s 757 mmHg 73%
06:00 +10°C° 0 mm 1 m/s 757 mmHg 66%
07:00 +12°C° 0 mm 1 m/s 758 mmHg 58%
08:00 +14°C° 0 mm 1 m/s 758 mmHg 51%
09:00 +16°C° 0 mm 2 m/s 757 mmHg 48%
10:00 +17°C° 0 mm 2 m/s 757 mmHg 44%
11:00 +19°C° 0 mm 2 m/s 757 mmHg 41%
12:00 +19°C° 0 mm 2 m/s 757 mmHg 41%
13:00 +20°C° 0 mm 2 m/s 757 mmHg 40%
14:00 +21°C° 0 mm 2 m/s 757 mmHg 40%
15:00 +20°C° 0 mm 2 m/s 756 mmHg 44%
16:00 +20°C° 0 mm 2 m/s 756 mmHg 47%
17:00 +19°C° 0 mm 2 m/s 756 mmHg 50%
18:00 +17°C° 0 mm 2 m/s 756 mmHg 60%
19:00 +15°C° 0 mm 2 m/s 756 mmHg 70%
20:00 +12°C° 0 mm 2 m/s 756 mmHg 80%
21:00 +12°C° 0 mm 2 m/s 756 mmHg 81%
22:00 +10°C° 0 mm 2 m/s 756 mmHg 83%
23:00 +9°C° 0 mm 2 m/s 756 mmHg 85%

Poimâine, 12 Mai, Miercuri

Timp Temperatura Precipitaţii Vânt Presiune Umiditate
00:00 +9°C° 0 mm 2 m/s 756 mmHg 85%
01:00 +8°C° 0 mm 2 m/s 756 mmHg 86%
02:00 +9°C° 0 mm 1 m/s 756 mmHg 87%
03:00 +10°C° 0 mm 1 m/s 756 mmHg 86%
04:00 +10°C° 0 mm 1 m/s 756 mmHg 86%
05:00 +11°C° 0 mm 1 m/s 756 mmHg 85%
06:00 +13°C° 0 mm 1 m/s 756 mmHg 79%
07:00 +15°C° 0 mm 2 m/s 756 mmHg 73%
08:00 +17°C° 0 mm 2 m/s 756 mmHg 66%
09:00 +19°C° 0 mm 2 m/s 756 mmHg 62%
10:00 +20°C° 0 mm 3 m/s 755 mmHg 57%
11:00 +22°C° 0 mm 3 m/s 755 mmHg 53%
12:00 +22°C° 0 mm 4 m/s 754 mmHg 50%
13:00 +23°C° 0 mm 4 m/s 754 mmHg 48%
14:00 +23°C° 0 mm 4 m/s 753 mmHg 46%
15:00 +23°C° 0.1 mm 4 m/s 753 mmHg 51%
16:00 +22°C° 0.1 mm 4 m/s 752 mmHg 56%
17:00 +21°C° 0.1 mm 5 m/s 752 mmHg 61%
18:00 +19°C° 0.6 mm 5 m/s 751 mmHg 70%
19:00 +18°C° 0.6 mm 4 m/s 751 mmHg 79%
20:00 +15°C° 0.6 mm 4 m/s 751 mmHg 88%
21:00 +14°C° 0.1 mm 4 m/s 751 mmHg 88%
22:00 +14°C° 0.1 mm 4 m/s 751 mmHg 89%
23:00 +13°C° 0.1 mm 4 m/s 751 mmHg 89%

13 Mai, Joi

Timp Temperatura Precipitaţii Vânt Presiune Umiditate
00:00 +12°C° 0 mm 4 m/s 751 mmHg 91%
01:00 +10°C° 0 mm 3 m/s 752 mmHg 93%
02:00 +9°C° 0 mm 3 m/s 752 mmHg 95%
03:00 +9°C° 0 mm 2 m/s 752 mmHg 94%
04:00 +9°C° 0 mm 2 m/s 752 mmHg 94%
05:00 +9°C° 0 mm 1 m/s 752 mmHg 94%
06:00 +10°C° 0 mm 2 m/s 751 mmHg 86%
07:00 +12°C° 0 mm 3 m/s 751 mmHg 78%
08:00 +14°C° 0 mm 3 m/s 751 mmHg 69%
09:00 +15°C° 0 mm 4 m/s 750 mmHg 65%
10:00 +17°C° 0 mm 4 m/s 750 mmHg 60%
11:00 +19°C° 0 mm 5 m/s 749 mmHg 55%
12:00 +18°C° 0.2 mm 4 m/s 749 mmHg 59%
13:00 +18°C° 0.2 mm 3 m/s 749 mmHg 62%
14:00 +17°C° 0.2 mm 3 m/s 749 mmHg 66%
15:00 +17°C° 0.3 mm 3 m/s 749 mmHg 68%
16:00 +17°C° 0.3 mm 3 m/s 749 mmHg 70%
17:00 +17°C° 0.3 mm 3 m/s 748 mmHg 72%
18:00 +16°C° 0 mm 3 m/s 749 mmHg 78%
19:00 +14°C° 0 mm 2 m/s 749 mmHg 84%
20:00 +13°C° 0 mm 2 m/s 749 mmHg 90%
21:00 +12°C° 0 mm 2 m/s 749 mmHg 91%
22:00 +12°C° 0 mm 2 m/s 749 mmHg 93%
23:00 +10°C° 0 mm 2 m/s 749 mmHg 94%

14 Mai, Vineri

Timp Temperatura Precipitaţii Vânt Presiune Umiditate
00:00 +9°C° 0 mm 2 m/s 749 mmHg 95%
01:00 +9°C° 0 mm 2 m/s 749 mmHg 95%
02:00 +8°C° 0 mm 2 m/s 749 mmHg 95%
03:00 +10°C° 0 mm 1 m/s 749 mmHg 94%
04:00 +10°C° 0 mm 1 m/s 749 mmHg 92%
05:00 +11°C° 0 mm 1 m/s 749 mmHg 91%
06:00 +13°C° 0 mm 2 m/s 749 mmHg 84%
07:00 +14°C° 0 mm 3 m/s 749 mmHg 78%
08:00 +17°C° 0 mm 3 m/s 749 mmHg 71%
09:00 +18°C° 0 mm 3 m/s 748 mmHg 67%
10:00 +19°C° 0 mm 3 m/s 748 mmHg 62%
11:00 +20°C° 0 mm 4 m/s 748 mmHg 58%
12:00 +21°C° 0.1 mm 4 m/s 748 mmHg 56%
13:00 +22°C° 0.1 mm 4 m/s 747 mmHg 54%
14:00 +23°C° 0.1 mm 4 m/s 747 mmHg 51%
15:00 +22°C° 0.1 mm 4 m/s 746 mmHg 56%
16:00 +21°C° 0.1 mm 3 m/s 746 mmHg 61%
17:00 +21°C° 0.1 mm 3 m/s 745 mmHg 66%
18:00 +19°C° 0.9 mm 3 m/s 745 mmHg 75%
19:00 +18°C° 0.9 mm 3 m/s 744 mmHg 84%
20:00 +16°C° 0.9 mm 3 m/s 744 mmHg 93%
21:00 +16°C° 0.3 mm 3 m/s 744 mmHg 93%
22:00 +16°C° 0.3 mm 3 m/s 743 mmHg 94%
23:00 +16°C° 0.3 mm 3 m/s 743 mmHg 95%

15 Mai, Sâmbătă

Timp Temperatura Precipitaţii Vânt Presiune Umiditate
00:00 +14°C° 0 mm 3 m/s 743 mmHg 96%
01:00 +15°C° 0 mm 2 m/s 743 mmHg 97%
02:00 +14°C° 0 mm 2 m/s 743 mmHg 98%
03:00 +14°C° 0 mm 2 m/s 743 mmHg 97%
04:00 +14°C° 0 mm 2 m/s 743 mmHg 97%
05:00 +14°C° 0 mm 1 m/s 743 mmHg 97%
06:00 +15°C° 0 mm 2 m/s 743 mmHg 92%
07:00 +16°C° 0 mm 2 m/s 744 mmHg 87%
08:00 +17°C° 0 mm 2 m/s 744 mmHg 82%
09:00 +18°C° 0 mm 2 m/s 744 mmHg 73%
10:00 +20°C° 0 mm 2 m/s 744 mmHg 64%
11:00 +21°C° 0 mm 3 m/s 744 mmHg 55%
12:00 +22°C° 0 mm 3 m/s 744 mmHg 52%
13:00 +24°C° 0 mm 3 m/s 744 mmHg 48%
14:00 +24°C° 0 mm 3 m/s 744 mmHg 45%
15:00 +23°C° 0 mm 2 m/s 744 mmHg 50%
16:00 +23°C° 0 mm 2 m/s 744 mmHg 55%
17:00 +22°C° 0 mm 1 m/s 744 mmHg 60%
18:00 +20°C° 0 mm 1 m/s 744 mmHg 67%
19:00 +18°C° 0 mm 1 m/s 744 mmHg 75%
20:00 +15°C° 0 mm 1 m/s 744 mmHg 83%
21:00 +15°C° 0 mm 1 m/s 743 mmHg 83%
22:00 +15°C° 0 mm 1 m/s 743 mmHg 84%
23:00 +15°C° 0 mm 1 m/s 743 mmHg 85%
Arată mai mult

Formular de consimțământ

Meteoprog și furnizorii noștri de servicii pot stoca și accesa date personale, precum cookies, identificatori de dispozitiv sau alte tehnologii similare pe dispozitivul dumneavoastră și procesa astfel de date pentru a personaliza conținutul și reclamele, dar și pentru a oferi caracteristici de social media și pentru a analiza traficul.

  • Stocarea și/sau accesarea informațiilor pe dispozitivul dumneavoastră

    Cookies, identificatori de dispozitiv sau alte informații pot fi stocate sau accesate pe dispozitiv în scopurile indicate mai sus.

  • Reclame și conținut personalizat, evaluarea reclamelor și a conținutului, informații despre audiențe și dezvoltarea produselor

    Reclamele și conținutul pot fi personalizate pe baza unui profil. Pot fi adăugate date suplimentare pentru a personaliza mai bine reclamele și conținutul. Performanța reclamelor și conținutului poate fi măsurată. Pot fi obținute informații despre utilizatorii care au văzut reclamele și conținutul. Aceste date pot fi utilizate pentru a dezvolta sau îmbunătăți experiența utilizatorilor, sistemele și software-ul.

Dând clic pe ‘Sunt de acord’, permiteți utilizarea cookie-urilor menționate, a identificatorilor de dispozitiv, balizelor web sau altor tehnologii similare. Setările pot fi modificate din browser-ul dispozitivului dumneavoastră.

În anumite scopuri, interesele legitime pot prima asupra consimțământului. Puteți citi mai multe informații în acest sens în Politica privind Confidențialitatea Datelor și Cookie.